Location: Albany
(35.0170°S, 117.8920°E)
Time: 01:05:26
(UTC+08:00)

S-56A Canister/Altair - Pass Details

Date: 20 June 2021
Orbit: 632 x 2501 km, 38.9° (Epoch: 24 July)

Event Time Altitude Azimuth Distance (km) Brightness Sun altitude
Rises 19:20:01 0° 259° (W) 6,186 13.2 -27.0°
Reaches altitude 10° 19:24:09 10° 258° (WSW) 5,172 12.6 -27.8°
Maximum altitude 19:39:18 79° 170° (S) 2,230 9.6 -30.9°
Enters shadow 19:42:55 55° 96° (E) 2,380 9.5 -31.6°
